Location: Bacharowice
(49.9333°N, 19.5833°E)
Time: 08:49:55
(UTC+00:00)

Okean 1-7 - Pass Details

Date: 11 May 2021
Orbit: 591 x 617 km, 82.5° (Epoch: 21 June)

Event Time Altitude Azimuth Distance (km) Brightness Sun altitude
Exits shadow 22:30:59 70° 200° (SSW) 636 2.8 -21.9°
Maximum altitude 22:31:27 86° 277° (W) 604 2.9 -21.9°
Drops below altitude 10° 22:35:46 10° 9° (N) 1,948 6.7 -21.9°
Sets 22:38:00 0° 10° (N) 2,859 7.9 -21.9°
